Regional Weather Roundup
Issued by NWS

Home | Current Version | Previous Version | Text Only | Print | Product List | Glossary On
Versions: 1 2 3 4 5 6 7 8 9 10 11 12 13 14 15 16 17 18 19 20 21 22 23 24 25 26 27 28 29 30 31 32 33 34 35 36 37 38 39 40 41 42 43 44 45 46 47 48 49 50
000
ASUS44 KMEG 240810
RWRTN
TENNESSEE HOURLY STATE WEATHER ROUNDUP
NATIONAL WEATHER SERVICE MEMPHIS TN
300 AM CDT THU APR 24 2014

TNZ002-004-019-021-049-052-054-088>092-240900-
WEST TENNESSEE

CITY           SKY/WX    TMP DP  RH WIND       PRES   REMARKS
MEMPHIS INTL   CLEAR     56  40  55 E5        29.91F
NWS MEMPHIS      N/A     50 N/A N/A MISG        N/A
JACKSON        PTCLDY    54  36  50 CALM      29.94F
DYERSBURG      PTCLDY    54  34  47 E5        29.94S
UNION CITY     CLEAR     48  37  66 CALM      29.93F
PARIS          CLEAR     49  34  56 E6        29.96F
LEXINGTON      CLEAR     45  39  81 CALM      29.95S
SAVANNAH       PTCLDY    41  41 100 CALM      29.96S
$$

TNZ008-025-027-028-033-062-065-066-240900-
NORTH MIDDLE TENNESSEE

CITY           SKY/WX    TMP DP  RH WIND       PRES   REMARKS
NASHVILLE      CLEAR     48  37  65 CALM      29.98S
DICKSON        CLEAR     50  32  50 E3        29.97F
PORTLAND       PTCLDY    48  34  57 E3        29.98F
CLARKSVILLE    CLEAR     48  35  60 E5        29.98S
SMYRNA         CLEAR     42  36  79 CALM      29.99S
MURFREESBORO   CLEAR     46  39  76 CALM      29.98S
COOKEVILLE     CLEAR     37  36  93 CALM      29.98F
LIVINGSTON     CLEAR     47  32  56 NE6       30.00S
GALLATIN       CLEAR     50  35  56 NE3       29.98F
CROSSVILLE     CLEAR     45  32  60 CALM      30.01R
$$

TNZ061-075-076-078-094-096-097-240900-
SOUTH MIDDLE TENNESSEE

CITY           SKY/WX    TMP DP  RH WIND       PRES   REMARKS
LEWISBURG      CLEAR     38  36  92 CALM      29.97S
FAYETTEVILLE   CLEAR     45  36  70 CALM      29.96F
TULLAHOMA      CLEAR     43  36  75 CALM      29.97S
WINCHESTER     CLEAR     39  37  93 CALM      29.97S
MCMINNVILLE    CLEAR     43  37  81 NE3       29.98S
COLUMBIA       CLEAR     43  43 100 CALM      29.96S
SHELBYVILLE    CLEAR     43  39  87 CALM      29.98S
$$

TNZ017-018-042-046-047-240900-
NORTHEAST TENNESSEE

CITY           SKY/WX    TMP DP  RH WIND       PRES   REMARKS
TRI CITIES     CLEAR     37  29  72 CALM      30.03S
ELIZABETHTON   SUNNY     37  30  75 CALM      30.03S
$$

TNZ012-013-036-069-073-074-240900-
CENTRAL EAST TENNESSEE

CITY           SKY/WX    TMP DP  RH WIND       PRES   REMARKS
KNOXVILLE      CLEAR     46  33  60 N7        29.99R
OAK RIDGE      CLEAR     47  35  63 CALM      30.01S
$$

TNZ083-085-099-240900-
SOUTHEAST TENNESSEE

CITY           SKY/WX    TMP DP  RH WIND       PRES   REMARKS
CHATTANOOGA    CLEAR     49  42  77 CALM      29.99R
$$

SKY/WX REPORTED AS FAIR MEANS FEW OR NO CLOUDS BELOW
12 THOUSAND FEET.




USA.gov is the U.S. government's official web portal to all federal, state and local government web resources and services.